Home > Weather > Cincinnati > Past weeks

Flag for USA Past Weather in Cincinnati, Ohio, USA — Yesterday and Last 2 Weeks

Now
70 °F

Fog.


Feels Like: 62 °F
Forecast: 69 / 85 °F
Wind: No wind

Location: Cincinnati Municipal Airport Lunken Field

Current Time: Jul 30, 2016 at 5:22:24 AM

Latest Report: Jul 30, 2016 at 4:53 AM


Visibility: 6 mi

Pressure: 29.89 "Hg

Humidity: 100%

Dew Point: 70 °F

Location of CincinnatiLocation

Past Weather in Cincinnati — Graph

°F

Cincinnati Temperature Yesterday

Maximum temperature yesterday: 85 °F (at 2:53 PM)
Minimum temperature yesterday: 70 °F (at 9:53 PM)
Average temperature yesterday: 77 °F

High & Low Weather Summary for the Past Weeks

 TemperatureHumidityPressure
High93 °F (Jul 24, 2:53 PM)100% (Jul 15, 3:53 AM)30.27 "Hg (Jul 15, 3:53 AM)
Low61 °F (Jul 17, 5:53 AM)45% (Jul 19, 4:53 PM)29.85 "Hg (Jul 28, 4:53 PM)
Average78 °F83%30.04 "Hg
* Reported Jul 15 3:53 AM — Jul 30 3:53 AM, Cincinnati, Weather by CustomWeather, © 2016

Note: Actual official high and low records may vary slightly from our data, if they occured in-between our weather recording intervals... More about our weather records

Advertising

Cincinnati Weather History for the Previous 24 Hours

Scroll right to see more
 ConditionsComfort  
Time TempWeatherWind HumidityBarometerVisibility
3:53 AM
Sat, Jul 30
70 °FFog.No wind100%29.90 "Hg5 mi
2:53 AM69 °FFog.No wind100%29.89 "Hg5 mi
1:53 AM72 °FMostly cloudy.No windN/A29.91 "Hg8 mi
12:53 AM70 °FMostly cloudy.No windN/A29.92 "Hg5 mi
11:53 PM
Fri, Jul 29
72 °FPassing clouds.7 mphN/A29.92 "Hg8 mi
10:53 PM70 °FPassing clouds.No windN/A29.93 "Hg8 mi
10:01 PM70 °FThunderstorms. Mostly cloudy.7 mphN/A29.94 "Hg4 mi
9:53 PM70 °FHeavy rain. Mostly cloudy.7 mphN/A29.93 "Hg2 mi
8:53 PM73 °FThunderstorms. Mostly cloudy.6 mphN/A29.90 "Hg8 mi
7:53 PM77 °FLight rain. Partly sunny.10 mph85%29.88 "Hg6 mi
6:53 PM84 °FMostly cloudy.6 mph72%29.85 "Hg10 mi
5:53 PM83 °FBroken clouds.10 mph72%29.85 "Hg10 mi
4:53 PM85 °FScattered clouds.8 mph70%29.85 "Hg10 mi
3:53 PM85 °FPassing clouds.8 mph68%29.87 "Hg10 mi
2:53 PM85 °FPartly sunny.9 mph70%29.89 "Hg10 mi
1:53 PM84 °FPartly sunny.5 mph72%29.91 "Hg10 mi
1:00 PM82 °FPartly sunny.8 mph77%29.95 "Hg8 mi
12:53 PM82 °FPartly sunny.8 mph79%29.93 "Hg8 mi
11:53 AM80 °FPartly sunny.8 mph79%29.94 "Hg9 mi
10:53 AM77 °FOvercast.6 mph88%29.94 "Hg7 mi
9:53 AM76 °FFog.3 mph91%29.93 "Hg6 mi
8:53 AM75 °FFog.No wind94%29.93 "Hg6 mi
7:53 AM73 °FFog.5 mph100%29.93 "Hg3 mi
6:53 AM72 °FFog.No wind100%29.92 "Hg3 mi
5:53 AM74 °FFog.No wind100%29.90 "Hg6 mi
Weather by CustomWeather, © 2016

See weather overviewHow to use our weather pages